Location: Newark
(39.1400°N, 92.7000°W)
Time: 09:49:21
(UTC+00:00)

OTV 5 (USA 277) - Visible Passes

Search period start: 24 August 2019 00:00
Search period end: 03 September 2019 00:00
Orbit: 305 x 329 km, 54.5° (Epoch: 20 August)

Date Brightness Start Highest point End Pass type
(mag) Time Alt. Az. Time Alt. Az. Time Alt. Az.
24 Aug ? 02:50:04 10° WSW 02:52:24 33° NW 02:52:24 33° NW visible
25 Aug ? 01:30:19 10° SSW 01:32:52 37° SE 01:35:24 10° ENE visible
25 Aug ? 03:05:35 10° WNW 03:07:18 15° NNW 03:07:59 14° NNW visible
26 Aug ? 01:44:42 10° WSW 01:47:22 60° NW 01:50:02 10° NE visible
27 Aug ? 01:59:48 10° W 02:02:01 22° NW 02:04:14 10° NNE visible
28 Aug ? 02:15:55 10° NW 02:16:50 11° NNW 02:17:45 10° N visible
30 Aug ? 01:09:45 10° WNW 01:11:31 16° NNW 01:13:16 10° N visible
